Regional Weather Roundup
Issued by NWS

Home | Current Version | Previous Version | Text Only | Print | Product List | Glossary On
Versions: 1 2 3 4 5 6 7 8 9 10 11 12 13 14 15 16 17 18 19 20 21 22 23 24 25 26 27 28 29 30 31 32 33 34 35 36 37 38 39 40 41 42 43 44 45 46 47 48 49 50
000
ASUS43 KMPX 161601
RWRMN
WEATHER ROUNDUP FOR MINNESOTA
NATIONAL WEATHER SERVICE TWIN CITIES/CHANHASSEN MN
1100 AM CDT WED AUG 16 2017


NOTE: "FAIR" INDICATES FEW OR NO CLOUDS BELOW 12,000 FEET WITH NO
SIGNIFICANT WEATHER AND/OR OBSTRUCTIONS TO VISIBILITY. N/A MEANS
CURRENT SKY AND/OR WEATHER CONDITIONS ARE NOT AVAILABLE.

MNZ060>063-068>070-161700-
   Twin Cities Metro

CITY           SKY/WX    TMP DP  RH WIND       PRES   REMARKS
TWIN CITIES    CLOUDY    68  63  84 SE14      29.90S
ST PAUL        PTSUNNY   69  65  86 E14       29.90F
CRYSTAL        CLOUDY    69  62  78 SE10      29.88F
BLAINE         PTSUNNY   70  68  94 SE9       29.90F
LAKEVILLE      CLOUDY    68  66  94 E7        29.89F
EDEN PRAIRIE   CLOUDY    69  64  84 E9        29.88F
SOUTH ST PAUL  CLOUDY    68  65  90 SE6       29.90F
LAKE ELMO      FAIR      68  64  88 E8        29.92F
$$
MNZ001>005-007-008-013>017-022>024-027-028-161700-
   Northwest Minnesota

CITY           SKY/WX    TMP DP  RH WIND       PRES   REMARKS
BEMIDJI        CLOUDY    64  59  85 SE12      29.90S
HALLOCK        CLOUDY    66  63  88 E5        29.89R
ROSEAU         RAIN      63  57  82 E6        29.92S
WARROAD        RAIN      63  59  88 CALM      29.94R
THIEF RVR FALL LGT RAIN  63  63 100 E7        29.89S FOG
CROOKSTON      CLOUDY    64  63  94 SE5       29.87S
FOSSTON        CLOUDY    64  63  94 SE7       29.88S FOG
DETROIT LAKES  CLOUDY    63  63 100 SE8       29.88S FOG
MOORHEAD       DRIZZLE   66  64  94 SE6       29.86R
PARK RAPIDS    CLOUDY    64  62  93 SE10      29.89S FOG
MAHNOMEN       CLOUDY    64  62  92 SE8       29.87S
$$
MNZ006-009>011-018-025>026-161700-
   North Central Minnesota

CITY           SKY/WX    TMP DP  RH WIND       PRES   REMARKS
BAUDETTE       CLOUDY    63  59  87 E6        29.93S
FLAG ISLAND    PTSUNNY   66  61  82 CALM      29.92S
INTL FALLS     CLOUDY    67  56  67 SE8       29.95F
WASKISH        CLOUDY    66  59  77 E6        29.91S
BIG FORK       CLOUDY    72  57  60 SE8       29.93F
LONGVILLE      CLOUDY    61  61 100 CALM      29.91F
GRAND RAPIDS   LGT RAIN  65  60  84 SE7       29.95F
CRANE LAKE     CLOUDY    64  54  68 CALM      29.99F
ORR            CLOUDY    68  52  56 SE6       29.94F
COOK             N/A     70  55  60 SE6       29.97F
WALKER         CLOUDY    62  59  92 SE6       29.90S
$$
MNZ012-019>021-037-161700-
   Northeast Minnesota

CITY           SKY/WX    TMP DP  RH WIND       PRES   REMARKS
DULUTH         CLOUDY    65  59  81 E13       29.98F
ELY            MOSUNNY   68  50  52 SE8       30.00S
HIBBING        SUNNY     69  58  67 SE13G23   29.96F
EVELETH        SUNNY     71  55  58 SE10      29.98F
DULUTH HARBOR  CLOUDY    64  61  88 NE18      29.98S
SILVER BAY     PTSUNNY   64  57  77 NE12      30.01S
GRAND MARAIS     N/A     62  57  83 E16       30.03S
$$
MNZ029>031-032-039>041-046>048-054>057-064-161700-
   West Central Minnesota

CITY           SKY/WX    TMP DP  RH WIND       PRES   REMARKS
FERGUS FALLS   CLOUDY    66  66 100 S8        29.86R
WHEATON        DRIZZLE   66  64  94 S3        29.87R
ALEXANDRIA     CLOUDY    66  65  96 SE10      29.88S
ELBOW LAKE     CLOUDY    66  65  97 SE8       29.86R
WADENA         CLOUDY    64  64 100 SE8       29.87F
GLENWOOD       CLOUDY    66  64  94 SE10      29.88R FOG
APPLETON       DRIZZLE   70  64  83 SE3       29.85R
BENSON         DRIZZLE   68  64  88 S9        29.87S
ORTONVILLE     RAIN      66  64  94 MISG      29.85S
MADISON        LGT RAIN  72  72 100 CALM      29.85S
WILLMAR        CLOUDY    68  66  94 SE8       29.88S
$$
MNZ033>034-036-042>043-049>051-058-059-161700-
   Central Minnesota

CITY           SKY/WX    TMP DP  RH WIND       PRES   REMARKS
ST CLOUD       CLOUDY    66  66 100 SE7       29.89F
SAUK CENTRE    CLOUDY    65  63  92 SE8       29.88S
PAYNESVILLE    CLOUDY    67  64  90 SE7       29.88F
AITKIN         CLOUDY    64  61  88 SE8       29.90F
PINE RIVER     CLOUDY    61  59  94 SE8       29.93F FOG
BRAINERD       CLOUDY    64  62  93 SE7       29.90S
STAPLES        CLOUDY    63  63 100 SE6       29.89R FOG
LONG PRAIRIE   CLOUDY    63  63 100 E7        29.89S FOG
LITTLE FALLS   CLOUDY    64  61  88 SE7       29.89S
LITCHFIELD     CLOUDY    70  66  88 SE7       29.88F
BUFFALO        CLOUDY    69  63  83 E9        29.89F
MAPLE LAKE     CLOUDY    70  67  89 SE5       29.90S
HUTCHINSON     CLOUDY    69  67  92 SE9       29.88F
$$
MNZ037-044-045-052-053-161700-
   East Central Minnesota

CITY           SKY/WX    TMP DP  RH WIND       PRES   REMARKS
PRINCETON      CLOUDY    66  64  94 SE9       29.90F
MORA           DRIZZLE   63  61  94 E5        29.93F
RUSH CITY      RAIN      67  62  86 SE8       29.93S
MOOSE LAKE     CLOUDY    63  57  82 CALM      29.94S
HINCKLEY       CLOUDY    64  63  94 E8        29.93F
CLOQUET        CLOUDY    64  57  77 E6        29.97S
MCGREGOR       CLOUDY    63  59  88 E9        29.93F
$$
MNZ071>073-080-081-089-090-097-098-161700-
   Southwest Minnesota

CITY           SKY/WX    TMP DP  RH WIND       PRES   REMARKS
MONTEVIDEO     RAIN      68  68 100 S6        29.85F
GRANITE FALLS  DRIZZLE   69  67  94 E5        29.87S
CANBY          LGT RAIN  68  67  94 CALM      29.85F
MARSHALL       CLOUDY    69  67  93 CALM      29.85F
REDWOOD FALLS  CLOUDY    69  65  86 SE7       29.84F
OLIVIA         CLOUDY    70  66  88 SE8       29.86S
PIPESTONE      LGT RAIN  68  66  94 E7        29.83F
WINDOM         CLOUDY    68  66  94 E6        29.85F FOG
WORTHINGTON    RAIN      67  66  97 E8        29.85F FOG
JACKSON        CLOUDY    66  66 100 E3        29.85F
TRACY          CLOUDY    70  67  90 CALM      29.85F
SLAYTON        CLOUDY    68  62  82 CALM      29.86F
$$
MNZ065>067-074>077-082>085-091>093-161700-
   South Central Minnesota

CITY           SKY/WX    TMP DP  RH WIND       PRES   REMARKS
MANKATO        CLOUDY    69  66  90 SE12      29.87F
NEW ULM        CLOUDY    66  64  94 SE7       29.86F FOG
ST JAMES       CLOUDY    66  66 100 E7        29.86F FOG
FAIRMONT       CLOUDY    68  67  96 E6        29.86S FOG
GLENCOE        CLOUDY    70  68  94 SE7       29.87F
FARIBAULT      CLOUDY    70  66  88 E8        29.89F
OWATONNA       PTSUNNY   72  66  83 SE10      29.89S
WASECA         CLOUDY    72  68  88 E9        29.89F
ALBERT LEA     CLOUDY    72  70  94 SE9       29.88F FOG
$$
MNZ078>079-086>088-094>096-161700-
   Southeast Minnesota

CITY           SKY/WX    TMP DP  RH WIND       PRES   REMARKS
ROCHESTER      CLOUDY    73  67  81 SE15      29.91F
RED WING       MOSUNNY   72  61  68 E9        29.90F
DODGE CENTER   MOSUNNY   73  64  73 SE12      29.90F
WINONA         SUNNY     73  63  68 E8        29.92F
AUSTIN         PTSUNNY   72  66  83 SE12      29.89F
PRESTON        SUNNY     73  63  72 SE10G16   29.93S
$$
ABBREVIATIONS USED IN REMARKS
   TC - TEMPERATURES IN CELSIUS
  WCI - WIND CHILL INDEX
   HX - HEAT INDEX
  VSB - VISIBILITY
$$



USA.gov is the U.S. government's official web portal to all federal, state and local government web resources and services.